Location: Village de las Huertas
(35.3014°N, 106.4095°W)
Time: 01:46:41
(UTC+00:00)

SL-19 R/B - Visible Passes

Search period start: 27 February 2021 00:00
Search period end: 09 March 2021 00:00
Orbit: 358 x 805 km, 99.4° (Epoch: 26 February)

Date Brightness Start Highest point End Pass type
(mag) Time Alt. Az. Time Alt. Az. Time Alt. Az.
04 Mar 8.0 12:46:47 10° E 12:47:59 11° E 12:49:14 10° ESE visible
05 Mar 7.8 12:51:31 10° ENE 12:53:22 13° E 12:55:19 10° SE visible
06 Mar 7.7 12:56:27 10° ENE 12:58:44 16° E 13:01:10 10° SE visible
07 Mar 7.6 13:01:29 10° NE 13:04:05 18° E 13:06:56 10° SE visible
